Location: Peebles
(55.6412°N, 3.1714°W)
Time: 23:59:55
(UTC+00:00)

IRS-1C Rocket - Visible Passes

Search period start: 27 January 2022 00:00
Search period end: 06 February 2022 00:00
Orbit: 800 x 806 km, 98.9° (Epoch: 27 January)

Date Brightness Start Highest point End Pass type
(mag) Time Alt. Az. Time Alt. Az. Time Alt. Az.
27 Jan 4.8 17:57:49 10° ESE 18:02:22 31° ENE 18:06:56 10° N visible
27 Jan 4.5 19:36:37 10° S 19:41:49 61° WSW 19:47:03 10° NNW visible
27 Jan 7.0 21:20:34 10° WSW 21:22:38 12° W 21:24:44 10° WNW visible
28 Jan 5.2 17:32:57 10° E 17:36:55 22° NE 17:40:53 10° N visible
28 Jan 4.0 19:10:46 10° SSE 19:16:02 89° ENE 19:21:21 10° NNW visible
28 Jan 6.5 20:52:48 10° SW 20:56:29 19° W 21:00:11 10° NW visible
29 Jan 6.9 07:18:34 10° NE 07:22:16 19° E 07:25:56 10° SE visible
29 Jan 4.1 18:45:10 10° SE 18:50:20 61° ENE 18:55:32 10° NNW visible
29 Jan 5.9 20:25:55 10° SSW 20:30:26 28° W 20:34:58 10° NNW visible
30 Jan 7.2 06:54:03 10° ENE 06:56:07 12° E 06:58:09 10° ESE visible
30 Jan 4.5 18:19:50 10° SE 18:24:44 41° ENE 18:29:39 10° N visible
30 Jan 5.2 19:59:29 10° S 20:04:28 43° W 20:09:30 10° NNW visible
31 Jan 4.9 17:54:44 10° ESE 17:59:12 29° NE 18:03:42 10° N visible
31 Jan 4.4 19:33:23 10° S 19:38:36 65° WSW 19:43:52 10° NNW visible
31 Jan 6.9 21:16:58 10° WSW 21:19:23 13° W 21:21:47 10° NW visible
01 Feb 5.3 17:29:54 10° E 17:33:46 21° NE 17:37:38 10° N visible
01 Feb 4.0 19:07:34 10° SSE 19:12:50 85° ENE 19:18:08 10° NNW visible
01 Feb 6.4 20:49:24 10° SW 20:53:14 20° W 20:57:05 10° NW visible
02 Feb 6.9 07:15:29 10° NE 07:19:01 18° E 07:22:32 10° SE visible
02 Feb 4.1 18:42:01 10° SE 18:47:09 57° ENE 18:52:19 10° NNW visible
02 Feb 5.8 20:22:35 10° SSW 20:27:11 30° W 20:31:49 10° NNW visible
03 Feb 7.3 06:51:12 10° ENE 06:52:50 11° E 06:54:28 10° E visible
03 Feb 4.5 18:16:42 10° SE 18:21:33 39° ENE 18:26:25 10° N visible
03 Feb 5.1 19:56:13 10° S 20:01:14 45° W 20:06:19 10° NNW visible
04 Feb 5.0 17:51:39 10° ESE 17:56:02 28° NE 18:00:27 10° N visible
04 Feb 4.3 19:30:09 10° S 19:35:24 69° WSW 19:40:41 10° NNW visible
04 Feb 6.9 21:13:25 10° WSW 21:16:07 14° W 21:18:49 10° NW visible
05 Feb 4.0 19:04:23 10° SSE 19:09:38 80° ENE 19:14:56 10° NNW visible
05 Feb 6.4 20:46:00 10° SW 20:49:58 21° W 20:53:58 10° NW visible
